Jefferson, NC

8:40 PM EST on November 11, 2019 (GMT -0500)
Ashe County

Weather History for KGEV - September, 2019

Change the Weather History Date:

Sunday, September 29, 2019

  Actual Average Record
Temperature  
Mean Temperature 72 °F -  
Max Temperature 83 °F 68 °F 78 °F (1971)
Min Temperature 62 °F 45 °F 31 °F (1985)
Cooling Degree Days 8    
Growing Degree Days 22 (Base 50)    
Moisture  
Dew Point 64 °F    
Average Humidity 84    
Maximum Humidity 100    
Minimum Humidity 49    
Precipitation  
Precipitation 0.08 in - - ()
Sea Level Pressure  
Sea Level Pressure 30.33 in    
Wind  
Wind Speed 1 mph ()    
Max Wind Speed 9 mph    
Max Gust Speed 18 mph    
Visibility 9.1 miles    
Events Fog , Rain , Thunderstorm    
Averages and records for this station are not official NWS values.
T = Trace of Precipitation, MM = Missing Value Source: Averaged Metar Reports

Daily Weather History Graph

Daily Weather History Graph

Search for Another Location

Airport or City:

Astronomy

Sep. 29, 2019 Rise Set
Actual Time 7:19 AM EDT 7:12 PM EDT
Civil Twilight 6:53 AM EDT 7:38 PM EDT
Nautical Twilight 6:23 AM EDT 8:07 PM EDT
Astronomical Twilight 5:53 AM EDT 8:38 PM EDT
Moon 8:07 AM EDT (9/29) 8:13 PM EDT (9/29)
Length of Visible Light 12h 44m
Length of Day
11h 53m
New Moon, 1% of the Moon is Illuminated
Sep 29
New Moon
Oct 5
First Quarter
Oct 13
Full
Oct 21
Last Quarter
Oct 27
New

Hourly Weather History & Observations

Time (EDT) Temp. Heat Index Dew Point Humidity Pressure Visibility Wind Dir Wind Speed Gust Speed Precip Events Conditions
12:15 AM 64.4 °F - 61.7 °F 91% 30.30 in 10.0 mi Calm Calm - N/A   Clear
12:55 AM 64.9 °F - 61.7 °F 89% 30.31 in 10.0 mi Calm Calm - N/A   Clear
1:15 AM 64.8 °F - 62.6 °F 93% 30.31 in 10.0 mi SW 3.5 mph - N/A   Clear
1:35 AM 62.6 °F - 61.7 °F 97% 30.31 in 10.0 mi Calm Calm - N/A   Clear
1:55 AM 63.5 °F - 61.7 °F 94% 30.32 in 10.0 mi WNW 3.5 mph - N/A   Scattered Clouds
2:15 AM 64.6 °F - 61.9 °F 91% 30.32 in 10.0 mi Calm Calm - N/A   Mostly Cloudy
2:35 AM 62.4 °F - 61.7 °F 97% 30.32 in 7.0 mi Calm Calm - N/A   Scattered Clouds
2:55 AM 62.4 °F - 61.5 °F 97% 30.32 in 10.0 mi Calm Calm - N/A   Scattered Clouds
3:15 AM 63.3 °F - 61.7 °F 94% 30.31 in 10.0 mi Calm Calm - N/A   Scattered Clouds
3:35 AM 64.6 °F - 63.0 °F 94% 30.31 in 10.0 mi Calm Calm - N/A   Clear
3:55 AM 63.5 °F - 62.2 °F 96% 30.31 in 10.0 mi Calm Calm - N/A   Clear
4:15 AM 66.7 °F - 63.7 °F 90% 30.30 in 10.0 mi Calm Calm - N/A   Clear
4:35 AM 65.5 °F - 63.1 °F 92% 30.31 in 10.0 mi Calm Calm - N/A   Clear
4:55 AM 62.1 °F - 61.5 °F 98% 30.31 in 5.0 mi Calm Calm - N/A   Clear
5:15 AM 63.0 °F - 62.4 °F 98% 30.31 in 10.0 mi Calm Calm - N/A   Clear
5:35 AM 67.3 °F - 63.7 °F 88% 30.32 in 10.0 mi Calm Calm - N/A   Clear
5:55 AM 63.7 °F - 62.6 °F 96% 30.32 in 10.0 mi Calm Calm - N/A   Clear
6:15 AM 62.8 °F - 61.9 °F 97% 30.32 in 10.0 mi Calm Calm - N/A   Clear
6:35 AM 64.4 °F - 63.0 °F 95% 30.32 in 10.0 mi Calm Calm - N/A   Clear
6:55 AM 65.3 °F - 62.2 °F 90% 30.33 in 10.0 mi Calm Calm - N/A   Clear
7:15 AM 65.7 °F - 63.3 °F 92% 30.34 in 10.0 mi Calm Calm - N/A   Clear
7:35 AM 62.4 °F - 61.9 °F 98% 30.35 in 7.0 mi Calm Calm - N/A   Clear
7:55 AM 64.9 °F - 63.0 °F 93% 30.36 in 10.0 mi Calm Calm - N/A   Clear
8:15 AM 66.9 °F - 63.3 °F 88% 30.35 in 10.0 mi Calm Calm - N/A   Clear
8:35 AM 68.0 °F - 63.5 °F 85% 30.36 in 10.0 mi Calm Calm - N/A   Clear
8:55 AM 68.9 °F - 65.8 °F 90% 30.36 in 10.0 mi Calm Calm - N/A   Clear
9:15 AM 67.5 °F - 64.8 °F 91% 30.37 in 10.0 mi Calm Calm - N/A   Clear
9:35 AM 70.2 °F - 65.8 °F 86% 30.37 in 10.0 mi Calm Calm - N/A   Clear
10:15 AM 74.5 °F - 63.5 °F 68% 30.38 in 10.0 mi North 3.5 mph - N/A   Clear
10:35 AM 75.0 °F - 64.4 °F 69% 30.38 in 10.0 mi Calm Calm - N/A   Clear
10:55 AM 75.7 °F - 64.4 °F 68% 30.38 in 10.0 mi Calm Calm - N/A   Clear
11:15 AM 77.0 °F - 63.7 °F 63% 30.38 in 10.0 mi NE 3.5 mph - N/A   Clear
11:35 AM 78.3 °F - 64.6 °F 63% 30.37 in 10.0 mi ENE 3.5 mph - N/A   Clear
11:55 AM 78.4 °F - 63.1 °F 59% 30.37 in 10.0 mi NE 3.5 mph - N/A   Clear
12:15 PM 78.6 °F - 62.4 °F 57% 30.37 in 10.0 mi ENE 3.5 mph - N/A   Clear
12:35 PM 80.6 °F 81.8 °F 62.8 °F 54% 30.36 in 10.0 mi Calm Calm - N/A   Scattered Clouds
12:55 PM 80.4 °F 81.7 °F 63.1 °F 55% 30.36 in 10.0 mi SSE 3.5 mph - N/A   Scattered Clouds
1:15 PM 80.6 °F 81.7 °F 62.2 °F 53% 30.35 in 10.0 mi East 4.6 mph - N/A   Scattered Clouds
1:35 PM 81.7 °F 82.9 °F 62.8 °F 53% 30.34 in 10.0 mi SE 3.5 mph - N/A   Mostly Cloudy
1:55 PM 83.1 °F 83.9 °F 62.1 °F 49% 30.34 in 10.0 mi Calm Calm - N/A   Overcast
2:15 PM 82.6 °F 83.4 °F 62.4 °F 50% 30.33 in 10.0 mi SE 3.5 mph - N/A   Mostly Cloudy
2:35 PM 81.0 °F 82.5 °F 64.0 °F 56% 30.32 in 10.0 mi ESE 3.5 mph - N/A   Scattered Clouds
2:55 PM 81.5 °F 83.4 °F 65.5 °F 58% 30.31 in 10.0 mi ESE 5.8 mph - N/A   Scattered Clouds
3:15 PM 78.1 °F - 64.9 °F 64% 30.31 in 10.0 mi SE 4.6 mph - N/A   Scattered Clouds
3:35 PM 77.5 °F - 64.9 °F 65% 30.31 in 10.0 mi South 3.5 mph - N/A   Scattered Clouds
3:55 PM 79.9 °F - 64.9 °F 60% 30.30 in 10.0 mi South 3.5 mph - N/A   Clear
4:35 PM 76.6 °F - 65.5 °F 68% 30.30 in 10.0 mi South 3.5 mph - N/A Thunderstorm Thunderstorm
4:55 PM 75.7 °F - 64.8 °F 69% 30.31 in 10.0 mi NNE 6.9 mph - N/A Thunderstorm Mostly Cloudy
5:15 PM 68.2 °F - 64.2 °F 87% 30.33 in 10.0 mi NNW 9.2 mph 18.4 mph N/A Rain , Thunderstorm Thunderstorms and Rain
5:35 PM 67.1 °F - 64.4 °F 91% 30.33 in 4.0 mi NNE 5.8 mph - 0.07 in Rain , Thunderstorm Heavy Thunderstorms and Rain
5:55 PM 68.4 °F - 65.3 °F 90% 30.32 in 10.0 mi Calm Calm - 0.08 in Rain Rain
6:15 PM 67.6 °F - 65.8 °F 94% 30.32 in 7.0 mi WNW 3.5 mph - N/A   Light Drizzle
6:35 PM 67.3 °F - 66.6 °F 98% 30.32 in 7.0 mi East 3.5 mph - N/A   Overcast
6:55 PM 68.4 °F - 65.7 °F 91% 30.32 in 10.0 mi Calm Calm - N/A   Light Drizzle
7:15 PM 68.2 °F - 66.7 °F 95% 30.31 in 10.0 mi Calm Calm - N/A   Scattered Clouds
7:35 PM 67.1 °F - 65.5 °F 95% 30.32 in 10.0 mi Calm Calm - N/A   Clear
7:55 PM 68.4 °F - 65.1 °F 89% 30.32 in 10.0 mi Calm Calm - N/A   Clear
8:15 PM 67.6 °F - 65.3 °F 92% 30.33 in 10.0 mi Calm Calm - N/A   Clear
8:35 PM 65.3 °F - 64.6 °F 98% 30.34 in 7.0 mi Calm Calm - N/A   Clear
8:55 PM 65.7 °F - 65.3 °F 99% 30.34 in 10.0 mi Calm Calm - N/A   Scattered Clouds
9:15 PM 63.7 °F - 63.5 °F 99% 30.35 in 0.5 mi North 3.5 mph - N/A Fog Fog
9:35 PM 63.5 °F - 63.5 °F 100% 30.36 in 0.5 mi NE 4.6 mph - N/A Fog Fog
10:15 PM 64.9 °F - 64.2 °F 98% 30.35 in 10.0 mi Calm Calm - N/A   Clear
10:35 PM 65.5 °F - 63.5 °F 93% 30.35 in 10.0 mi Calm Calm - N/A   Clear
10:55 PM 63.5 °F - 63.3 °F 99% 30.35 in 1.2 mi Calm Calm - N/A   Scattered Clouds
11:15 PM 64.0 °F - 64.0 °F 100% 30.35 in 7.0 mi Calm Calm - N/A   Scattered Clouds
11:35 PM 63.7 °F - 63.3 °F 99% 30.35 in 7.0 mi Calm Calm - N/A   Clear
11:55 PM 64.6 °F - 63.5 °F 96% 30.35 in 10.0 mi Calm Calm - N/A   Clear